Preview of NWS' New Version of Forecast
This preview is not operational and should not be used for support decisions.

Terminal Aerodrome Forecast (TAF)

Issued by National Weather Service (NWS)

                            
000
FTUS41 KGYX 252320
TAFRKD
TAF
KRKD 252320Z 2600/2624 09009KT P6SM FEW250=